Regional Weather Roundup
Issued by NWS

Home | Current Version | Previous Version | Text Only | Print | Product List | Glossary Off
Versions: 1 2 3 4 5 6 7 8 9 10 11 12 13 14 15 16 17 18 19 20 21 22 23 24 25 26 27 28 29 30 31 32 33 34 35 36 37 38 39 40 41 42 43 44 45 46 47 48 49 50

000
ASUS43 KIND 081509
RWRIN

WEATHER ROUNDUP FOR INDIANA
NATIONAL WEATHER SERVICE INDIANAPOLIS IN
1000 AM EST THU DEC 08 2016

NOTE: "FAIR" INDICATES FEW OR NO CLOUDS BELOW 12,000 FEET WITH NO
SIGNIFICANT WEATHER AND/OR OBSTRUCTIONS TO VISIBILITY.

* - STATION DOES NOT REPORT WEATHER SUCH AS PRECIPITATION OR FOG.

+ - STATION NOT QUALITY CONTROLLED BY THE NATIONAL WEATHER SERVICE.
    USE DATA WITH CAUTION...ESPECIALLY DEWPOINT AND RELATIVE
    HUMIDITY OBSERVATIONS.

INZ001>003-010>013-019-020-081600-
NORTHWEST INDIANA

CITY           SKY/WX    TMP DP  RH WIND       PRES   REMARKS
GARY /AIRPORT/ CLOUDY    19  12  73 SW17G29   30.27  WCI   4
KNOX *+        PTSUNNY   21  -6  30 W15G31    30.24R WCI   8
LA PORTE +     LGT SNOW  20  13  74 W18G29    30.21R WCI   4
MICHIGAN CITY+ LGT SNOW  21  16  79 W17G25    30.22R WCI   7
MONTICELLO +   FLURRIES  21  12  68 W15G22    30.28R WCI   8
RENSSELAER +   FLURRIES  23  18  80 W18G25    30.28R WCI   9
VALPARAISO     FLURRIES  20  11  68 W21G32    30.24R WCI   4

$$

LMZ046-743>745-081600-
SOUTHERN LAKE MICHIGAN

STATION/POSITION TIME  TEMP    WIND        PRES    WAVE
                       AIR SEA DIR/SP/G            HT
                 (UTC) (F)     (DEG/KT/KT) (MB)    (FT)

$$

INZ004-005-014>016-021>024-081600-
NORTH CENTRAL INDIANA

CITY           SKY/WX    TMP DP  RH WIND       PRES   REMARKS
ELKHART        LGT SNOW  21  16  79 W15G23    30.18R WCI   8
GOSHEN         LGT SNOW  21  14  74 W18       30.18R WCI   6
LOGANSPORT +   FLURRIES  23  16  74 W17       30.27R WCI   9
PERU/GRISSOM   LGT SNOW  21  15  76 W20       30.23R WCI   6
ROCHESTER +    FLURRIES  25  18  74 W15G22    30.23R WCI  12
SOUTH BEND     LGT SNOW  20  15  81 W16       30.19R WCI   6
WARSAW +       FLURRIES  23  12  63 W21       30.20R WCI   8

$$

INZ006>009-017-018-025>027-081600-
NORTHEAST INDIANA

CITY           SKY/WX    TMP DP  RH WIND       PRES   REMARKS
ANGOLA *+      CLOUDY    21  18  86 W14       30.12R WCI   8
AUBURN +       LGT SNOW  23  16  74 W12G21    30.18R WCI  12
FORT WAYNE     LGT SNOW  22  16  78 W14G25    30.21R WCI   9
HUNTINGTON +   LGT SNOW  21  16  79 W16G23    30.22R VSB 3/4 WCI   7
KENDALLVILLE + LGT SNOW  21  17  83 W17G30    30.16R WCI   7

$$

INZ028-029-035-036-043>045-051>053-081600-
WEST CENTRAL INDIANA

CITY           SKY/WX    TMP DP  RH WIND       PRES   REMARKS
CRAWFORDSVL +  CLOUDY    19  14  81 W16G23    30.32R WCI   4
GREENCASTLE +  CLOUDY    21  16  79 W10G17    30.34R WCI  10
LAFAYETTE      FLURRIES  20  13  74 W20G26    30.32R WCI   4
TERRE HAUTE    CLOUDY    22  13  68 W15G24    30.38R WCI   9

$$

INZ030>032-037>040-046>048-054>057-064-065-081600-
CENTRAL INDIANA

CITY           SKY/WX    TMP DP  RH WIND       PRES   REMARKS
CP ATTERBURY + SUNNY     27  14  59 W14       30.33R WCI  15
COLUMBUS       SUNNY     25  16  68 W14       30.33R WCI  13
FISHERS *+     CLOUDY    21  16  79 W17G24    30.30  WCI   7
FRANKFORT +    FLURRIES  23  16  74 W21G29    30.30R WCI   8
GREENWOOD *+   CLOUDY    23  15  72 W15G29    30.30R WCI  10
INDIANAPOLIS   CLOUDY    22  13  68 W20G28    30.31R WCI   7
-EAGLE CREEK   CLOUDY    22  13  68 W21G26    30.30R WCI   6
KOKOMO +       FLURRIES  21  16  81 W21G30    30.26R WCI   5
MARION +       FLURRIES  21  15  79 W21G31    30.26R WCI   5
MT COMFORT *+  CLOUDY    23  14  68 W20       30.28R WCI   8
SHELBYVILLE    CLOUDY    24  14  65 W18G25    30.29R WCI  10
ZIONSVILLE +   FLURRIES  20  14  76 W14G20    30.29R WCI   7

$$

INZ033-034-041-042-049-050-058-059-081600-
EAST CENTRAL INDIANA

CITY           SKY/WX    TMP DP  RH WIND       PRES   REMARKS
MUNCIE         CLOUDY    23  15  71 W15G22    30.24R WCI  10

$$

INZ060-061-067>069-081>083-085>088-081600-
SOUTHWEST INDIANA

CITY           SKY/WX    TMP DP  RH WIND       PRES   REMARKS
EVANSVILLE     SUNNY     28  14  55 W12       30.44R WCI  18
HUNTINGBURG *+ MOSUNNY   26  17  68 W14       30.41R WCI  14
WASHINGTON +   SUNNY     26  17  69 W15       30.40R WCI  13

$$

INZ062-063-066-070>080-084-089>092-081600-
SOUTH CENTRAL AND SOUTHEAST INDIANA

CITY           SKY/WX    TMP DP  RH WIND       PRES   REMARKS
BLOOMINGTON    MOSUNNY   24  13  62 W16G25    30.33R WCI  11
MADISON *+     SUNNY     28  14  54 W14G21    30.34R WCI  17
NORTH VERNON + SUNNY     27  19  74 W16       30.32R WCI  14
SEYMOUR +      SUNNY     28  14  54 W18       30.35R WCI  16

$$





USA.gov is the U.S. government's official web portal to all federal, state and local government web resources and services.